Location: Arcusa
(42.3167°N, 0.0833°W)
Time: 18:44:47
(UTC+00:00)

ALOS - Pass Details

Date: 25 January 2020
Orbit: 683 x 686 km, 97.8° (Epoch: 15 February)

Event Time Altitude Azimuth Distance (km) Brightness Sun altitude
Rises 05:35:17 0° 9° (N) 3,057 5.6 -19.5°
Reaches altitude 10° 05:37:33 10° 6° (N) 2,137 4.8 -19.0°
Maximum altitude 05:42:10 61° 286° (WNW) 775 2.2 -18.2°
Drops below altitude 10° 05:46:44 10° 207° (SSW) 2,121 4.6 -17.4°
Sets 05:48:59 0° 204° (SSW) 3,032 5.5 -17.0°
